Time,TemperatureF,DewpointF,PressureIn,WindDirection,WindDirectionDegrees,WindSpeedMPH,WindSpeedGustMPH,Humidity,HourlyPrecipIn,Conditions,Clouds,dailyrainin,SoftwareType,DateUTC
2013-03-15 00:01:00,55.6,51.4,30.09,NW,315,2.0,3.0,86,0.00,,,0.00,meteohub,2013-03-15 04:01:00,
2013-03-15 00:02:00,55.6,51.4,30.09,NW,315,2.0,3.0,86,0.00,,,0.00,meteohub,2013-03-15 04:02:00,
2013-03-15 00:03:00,55.6,51.4,30.09,North,0,2.0,3.0,86,0.00,,,0.00,meteohub,2013-03-15 04:03:00,
2013-03-15 00:08:00,55.6,51.4,30.09,North,0,2.0,2.0,86,0.00,,,0.00,meteohub,2013-03-15 04:08:00,
2013-03-15 00:13:00,55.6,51.4,30.09,NW,315,1.0,3.0,86,0.00,,,0.00,meteohub,2013-03-15 04:13:00,
2013-03-15 00:18:00,55.2,51.1,30.09,North,0,2.0,3.0,86,0.00,,,0.00,meteohub,2013-03-15 04:18:00,
2013-03-15 00:23:00,55.2,51.4,30.09,NW,315,3.0,3.0,87,0.00,,,0.00,meteohub,2013-03-15 04:23:00,
2013-03-15 00:29:00,55.0,51.6,30.09,NW,315,2.0,2.0,88,0.00,,,0.00,meteohub,2013-03-15 04:29:00,
2013-03-15 00:34:00,55.0,51.6,30.09,North,0,2.0,3.0,88,0.00,,,0.00,meteohub,2013-03-15 04:34:00,
2013-03-15 00:39:00,55.2,51.8,30.09,North,0,3.0,3.0,88,0.00,,,0.00,meteohub,2013-03-15 04:39:00,
2013-03-15 00:44:00,55.4,52.0,30.08,North,0,4.0,4.0,88,0.00,,,0.00,meteohub,2013-03-15 04:44:00,
2013-03-15 00:49:00,55.8,51.6,30.09,North,0,2.0,4.0,86,0.00,,,0.00,meteohub,2013-03-15 04:49:00,
2013-03-15 00:54:00,55.9,51.8,30.09,North,0,2.0,4.0,86,0.00,,,0.00,meteohub,2013-03-15 04:54:00,
2013-03-15 00:59:00,55.9,51.8,30.08,North,0,2.0,4.0,86,0.00,,,0.00,meteohub,2013-03-15 04:59:00,
2013-03-15 01:04:00,56.1,51.6,30.09,North,0,2.0,5.0,85,0.00,,,0.00,meteohub,2013-03-15 05:04:00,
2013-03-15 01:09:00,56.5,52.0,30.09,NW,315,2.0,5.0,85,0.00,,,0.00,meteohub,2013-03-15 05:09:00,
2013-03-15 01:15:00,56.5,51.6,30.09,NW,315,4.0,5.0,84,0.00,,,0.00,meteohub,2013-03-15 05:15:00,
2013-03-15 01:20:00,56.5,52.0,30.08,North,0,2.0,5.0,85,0.00,,,0.00,meteohub,2013-03-15 05:20:00,
2013-03-15 01:24:00,56.3,51.8,30.08,NW,315,2.0,5.0,85,0.00,,,0.00,meteohub,2013-03-15 05:24:00,
2013-03-15 01:30:00,56.3,51.8,30.08,NW,315,2.0,5.0,85,0.00,,,0.00,meteohub,2013-03-15 05:30:00,
2013-03-15 01:35:00,56.1,52.0,30.08,North,0,2.0,5.0,86,0.00,,,0.00,meteohub,2013-03-15 05:35:00,
2013-03-15 01:40:00,56.3,52.2,30.08,West,270,2.0,5.0,86,0.00,,,0.00,meteohub,2013-03-15 05:40:00,
2013-03-15 01:45:00,56.3,52.2,30.08,NW,315,4.0,5.0,86,0.00,,,0.00,meteohub,2013-03-15 05:45:00,
2013-03-15 01:50:00,56.1,52.0,30.09,North,0,1.0,5.0,86,0.00,,,0.00,meteohub,2013-03-15 05:50:00,
2013-03-15 01:55:00,55.9,51.8,30.08,NW,315,2.0,5.0,86,0.00,,,0.00,meteohub,2013-03-15 05:55:00,
2013-03-15 02:01:00,55.9,52.2,30.08,NW,315,1.0,4.0,87,0.00,,,0.00,meteohub,2013-03-15 06:01:00,
2013-03-15 02:06:00,55.8,52.0,30.07,NW,315,2.0,3.0,87,0.00,,,0.00,meteohub,2013-03-15 06:06:00,
2013-03-15 02:11:00,55.8,52.3,30.08,North,0,2.0,3.0,88,0.00,,,0.00,meteohub,2013-03-15 06:11:00,
2013-03-15 02:17:00,55.8,52.3,30.07,NE,45,4.0,4.0,88,0.00,,,0.00,meteohub,2013-03-15 06:17:00,
2013-03-15 02:22:00,55.9,52.5,30.08,NW,315,2.0,4.0,88,0.00,,,0.00,meteohub,2013-03-15 06:22:00,
2013-03-15 02:27:00,55.9,52.5,30.08,NW,315,4.0,5.0,88,0.00,,,0.00,meteohub,2013-03-15 06:27:00,
2013-03-15 02:32:00,55.9,52.5,30.08,West,270,4.0,5.0,88,0.00,,,0.00,meteohub,2013-03-15 06:32:00,
2013-03-15 02:37:00,55.8,52.0,30.07,North,0,2.0,5.0,87,0.00,,,0.00,meteohub,2013-03-15 06:37:00,
2013-03-15 02:42:00,55.8,52.3,30.07,North,0,2.0,4.0,88,0.00,,,0.00,meteohub,2013-03-15 06:42:00,
2013-03-15 02:48:00,55.6,52.2,30.06,NW,315,4.0,4.0,88,0.00,,,0.00,meteohub,2013-03-15 06:48:00,
2013-03-15 02:53:00,55.8,52.3,30.07,NW,315,5.0,5.0,88,0.00,,,0.00,meteohub,2013-03-15 06:53:00,
2013-03-15 02:58:00,55.8,52.0,30.07,North,0,4.0,5.0,87,0.00,,,0.00,meteohub,2013-03-15 06:58:00,
2013-03-15 03:03:00,55.9,52.2,30.07,NW,315,4.0,5.0,87,0.00,,,0.00,meteohub,2013-03-15 07:03:00,
2013-03-15 03:09:00,55.9,52.2,30.06,North,0,6.0,6.0,87,0.00,,,0.00,meteohub,2013-03-15 07:09:00,
2013-03-15 03:14:00,56.1,52.0,30.06,NW,315,4.0,6.0,86,0.00,,,0.00,meteohub,2013-03-15 07:14:00,
2013-03-15 03:19:00,56.1,52.0,30.06,NW,315,1.0,6.0,86,0.00,,,0.00,meteohub,2013-03-15 07:19:00,
2013-03-15 03:24:00,56.1,52.0,30.06,North,0,4.0,6.0,86,0.00,,,0.00,meteohub,2013-03-15 07:24:00,
2013-03-15 03:29:00,55.9,51.4,30.06,North,0,2.0,6.0,85,0.00,,,0.00,meteohub,2013-03-15 07:29:00,
2013-03-15 03:35:00,56.1,51.6,30.06,North,0,3.0,4.0,85,0.00,,,0.00,meteohub,2013-03-15 07:35:00,
2013-03-15 03:40:00,55.9,51.4,30.06,North,0,3.0,4.0,85,0.00,,,0.00,meteohub,2013-03-15 07:40:00,
2013-03-15 03:45:00,55.9,51.4,30.06,NW,315,2.0,4.0,85,0.00,,,0.00,meteohub,2013-03-15 07:45:00,
2013-03-15 03:50:00,55.9,51.8,30.06,North,0,6.0,6.0,86,0.00,,,0.00,meteohub,2013-03-15 07:50:00,
2013-03-15 03:55:00,55.9,51.4,30.06,NW,315,3.0,6.0,85,0.00,,,0.00,meteohub,2013-03-15 07:55:00,
2013-03-15 04:00:00,56.1,51.4,30.06,NW,315,2.0,6.0,84,0.00,,,0.00,meteohub,2013-03-15 08:00:00,
2013-03-15 04:06:00,56.1,51.1,30.06,North,0,3.0,6.0,83,0.00,,,0.00,meteohub,2013-03-15 08:06:00,
2013-03-15 04:11:00,55.9,50.2,30.06,North,0,2.0,6.0,81,0.00,,,0.00,meteohub,2013-03-15 08:11:00,
2013-03-15 04:17:00,55.9,49.8,30.06,North,0,3.0,4.0,80,0.00,,,0.00,meteohub,2013-03-15 08:17:00,
2013-03-15 04:22:00,55.9,49.5,30.06,North,0,2.0,4.0,79,0.00,,,0.00,meteohub,2013-03-15 08:22:00,
2013-03-15 04:27:00,55.8,49.3,30.06,NW,315,4.0,4.0,79,0.00,,,0.00,meteohub,2013-03-15 08:27:00,
2013-03-15 04:32:00,55.6,49.1,30.06,NW,315,2.0,4.0,79,0.00,,,0.00,meteohub,2013-03-15 08:32:00,
2013-03-15 04:37:00,55.6,49.1,30.06,NW,315,2.0,5.0,79,0.00,,,0.00,meteohub,2013-03-15 08:37:00,
2013-03-15 04:42:00,55.4,48.9,30.07,NW,315,2.0,5.0,79,0.00,,,0.00,meteohub,2013-03-15 08:42:00,
2013-03-15 04:47:00,55.2,48.6,30.06,North,0,3.0,5.0,78,0.00,,,0.00,meteohub,2013-03-15 08:47:00,
2013-03-15 04:53:00,55.2,47.8,30.06,West,270,4.0,5.0,76,0.00,,,0.00,meteohub,2013-03-15 08:53:00,
2013-03-15 04:58:00,55.2,47.5,30.06,NW,315,2.0,5.0,75,0.00,,,0.00,meteohub,2013-03-15 08:58:00,
2013-03-15 05:03:00,55.0,46.9,30.06,North,0,3.0,4.0,74,0.00,,,0.00,meteohub,2013-03-15 09:03:00,
2013-03-15 05:08:00,55.0,46.9,30.07,North,0,3.0,4.0,74,0.00,,,0.00,meteohub,2013-03-15 09:08:00,
2013-03-15 05:13:00,55.0,46.6,30.06,NW,315,2.0,4.0,73,0.00,,,0.00,meteohub,2013-03-15 09:13:00,
2013-03-15 05:18:00,54.9,46.4,30.07,North,0,7.0,7.0,73,0.00,,,0.00,meteohub,2013-03-15 09:18:00,
2013-03-15 05:23:00,54.9,46.4,30.07,NW,315,1.0,7.0,73,0.00,,,0.00,meteohub,2013-03-15 09:23:00,
2013-03-15 05:29:00,54.5,46.4,30.07,NW,315,3.0,7.0,74,0.00,,,0.00,meteohub,2013-03-15 09:29:00,
2013-03-15 05:34:00,54.3,46.9,30.08,North,0,2.0,7.0,76,0.00,,,0.00,meteohub,2013-03-15 09:34:00,
2013-03-15 05:39:00,54.3,46.9,30.08,North,0,3.0,9.0,76,0.00,,,0.00,meteohub,2013-03-15 09:39:00,
2013-03-15 05:44:00,54.1,47.1,30.08,WNW,293,4.0,9.0,77,0.00,,,0.00,meteohub,2013-03-15 09:44:00,
2013-03-15 05:49:00,54.0,46.9,30.09,NW,315,4.0,9.0,77,0.00,,,0.00,meteohub,2013-03-15 09:49:00,
2013-03-15 05:54:00,53.8,47.1,30.08,North,0,4.0,6.0,78,0.00,,,0.00,meteohub,2013-03-15 09:54:00,
2013-03-15 06:00:00,53.8,47.1,30.09,NW,315,6.0,6.0,78,0.00,,,0.00,meteohub,2013-03-15 10:00:00,
2013-03-15 06:05:00,54.0,46.9,30.09,North,0,4.0,5.0,77,0.00,,,0.00,meteohub,2013-03-15 10:05:00,
2013-03-15 06:10:00,53.8,46.8,30.09,North,0,4.0,6.0,77,0.00,,,0.00,meteohub,2013-03-15 10:10:00,
2013-03-15 06:15:00,54.0,46.6,30.09,NW,315,4.0,6.0,76,0.00,,,0.00,meteohub,2013-03-15 10:15:00,
2013-03-15 06:20:00,54.0,46.6,30.09,North,0,6.0,7.0,76,0.00,,,0.00,meteohub,2013-03-15 10:20:00,
2013-03-15 06:25:00,54.0,46.6,30.09,North,0,5.0,7.0,76,0.00,,,0.00,meteohub,2013-03-15 10:25:00,
2013-03-15 06:30:00,53.8,46.4,30.09,North,0,3.0,6.0,76,0.00,,,0.00,meteohub,2013-03-15 10:30:00,
2013-03-15 06:36:00,53.8,46.4,30.10,North,0,6.0,8.0,76,0.00,,,0.00,meteohub,2013-03-15 10:36:00,
2013-03-15 06:41:00,53.8,46.4,30.10,NW,315,3.0,8.0,76,0.00,,,0.00,meteohub,2013-03-15 10:41:00,
2013-03-15 06:46:00,53.6,46.6,30.10,North,0,6.0,6.0,77,0.00,,,0.00,meteohub,2013-03-15 10:46:00,
2013-03-15 06:51:00,53.6,46.6,30.10,North,0,3.0,8.0,77,0.00,,,0.00,meteohub,2013-03-15 10:51:00,
2013-03-15 06:57:00,53.4,46.4,30.10,North,0,2.0,8.0,77,0.00,,,0.00,meteohub,2013-03-15 10:57:00,
2013-03-15 07:02:00,53.4,46.8,30.11,North,0,4.0,8.0,78,0.00,,,0.00,meteohub,2013-03-15 11:02:00,
2013-03-15 07:07:00,53.2,46.6,30.11,NW,315,6.0,8.0,78,0.00,,,0.00,meteohub,2013-03-15 11:07:00,
2013-03-15 07:12:00,53.4,46.8,30.11,NW,315,3.0,8.0,78,0.00,,,0.00,meteohub,2013-03-15 11:12:00,
2013-03-15 07:17:00,53.2,46.6,30.12,North,0,4.0,8.0,78,0.00,,,0.00,meteohub,2013-03-15 11:17:00,
2013-03-15 07:22:00,53.1,46.4,30.12,North,0,2.0,8.0,78,0.00,,,0.00,meteohub,2013-03-15 11:22:00,
2013-03-15 07:27:00,53.1,46.8,30.12,North,0,2.0,6.0,79,0.00,,,0.00,meteohub,2013-03-15 11:27:00,
2013-03-15 07:32:00,52.7,46.4,30.12,North,0,5.0,5.0,79,0.00,,,0.00,meteohub,2013-03-15 11:32:00,
2013-03-15 07:38:00,52.7,46.4,30.12,North,0,3.0,5.0,79,0.00,,,0.00,meteohub,2013-03-15 11:38:00,
2013-03-15 07:43:00,52.9,46.9,30.12,North,0,3.0,5.0,80,0.00,,,0.00,meteohub,2013-03-15 11:43:00,
2013-03-15 07:48:00,53.2,46.9,30.12,NW,315,2.0,5.0,79,0.00,,,0.00,meteohub,2013-03-15 11:48:00,
2013-03-15 07:53:00,53.4,46.8,30.12,North,0,2.0,4.0,78,0.00,,,0.00,meteohub,2013-03-15 11:53:00,
2013-03-15 07:58:00,53.8,46.8,30.12,North,0,4.0,5.0,77,0.00,,,0.00,meteohub,2013-03-15 11:58:00,
2013-03-15 08:04:00,55.0,47.3,30.13,North,0,6.0,6.0,75,0.00,,,0.00,meteohub,2013-03-15 12:04:00,
2013-03-15 08:09:00,55.8,47.3,30.13,NW,315,4.0,5.0,73,0.00,,,0.00,meteohub,2013-03-15 12:09:00,
2013-03-15 08:14:00,56.8,47.5,30.13,North,0,3.0,6.0,71,0.00,,,0.00,meteohub,2013-03-15 12:14:00,
2013-03-15 08:19:00,57.4,47.7,30.13,North,0,4.0,6.0,70,0.00,,,0.00,meteohub,2013-03-15 12:19:00,
2013-03-15 08:24:00,58.1,48.0,30.13,NW,315,3.0,7.0,69,0.00,,,0.00,meteohub,2013-03-15 12:24:00,
2013-03-15 08:29:00,58.6,48.2,30.14,NW,315,4.0,7.0,68,0.00,,,0.00,meteohub,2013-03-15 12:29:00,
2013-03-15 08:34:00,59.4,48.4,30.14,North,0,4.0,7.0,67,0.00,,,0.00,meteohub,2013-03-15 12:34:00,
2013-03-15 08:40:00,59.5,48.2,30.13,NW,315,5.0,5.0,66,0.00,,,0.00,meteohub,2013-03-15 12:40:00,
2013-03-15 08:45:00,59.7,48.4,30.14,NW,315,2.0,7.0,66,0.00,,,0.00,meteohub,2013-03-15 12:45:00,
2013-03-15 08:50:00,60.3,48.0,30.14,West,270,2.0,7.0,64,0.00,,,0.00,meteohub,2013-03-15 12:50:00,
2013-03-15 08:55:00,60.8,48.2,30.14,North,0,3.0,6.0,63,0.00,,,0.00,meteohub,2013-03-15 12:55:00,
2013-03-15 09:00:00,62.1,48.9,30.14,WNW,293,3.0,6.0,62,0.00,,,0.00,meteohub,2013-03-15 13:00:00,
2013-03-15 09:05:00,62.6,47.7,30.14,NW,315,4.0,8.0,58,0.00,,,0.00,meteohub,2013-03-15 13:05:00,
2013-03-15 09:11:00,63.0,48.4,30.14,North,0,2.0,8.0,59,0.00,,,0.00,meteohub,2013-03-15 13:11:00,
2013-03-15 09:16:00,63.5,47.5,30.15,North,0,8.0,8.0,56,0.00,,,0.00,meteohub,2013-03-15 13:16:00,
2013-03-15 09:22:00,63.9,47.3,30.14,WNW,293,5.0,8.0,55,0.00,,,0.00,meteohub,2013-03-15 13:22:00,
2013-03-15 09:27:00,63.7,47.3,30.15,WNW,293,4.0,10.0,55,0.00,,,0.00,meteohub,2013-03-15 13:27:00,
2013-03-15 09:32:00,63.7,47.3,30.14,NW,315,7.0,11.0,55,0.00,,,0.00,meteohub,2013-03-15 13:32:00,
2013-03-15 09:37:00,63.1,47.1,30.15,North,0,6.0,11.0,56,0.00,,,0.00,meteohub,2013-03-15 13:37:00,
2013-03-15 09:42:00,63.9,48.7,30.15,North,0,3.0,10.0,58,0.00,,,0.00,meteohub,2013-03-15 13:42:00,
2013-03-15 09:47:00,64.9,48.4,30.15,WNW,293,2.0,10.0,55,0.00,,,0.00,meteohub,2013-03-15 13:47:00,
2013-03-15 09:52:00,65.3,47.7,30.15,West,270,6.0,8.0,53,0.00,,,0.00,meteohub,2013-03-15 13:52:00,
2013-03-15 09:57:00,65.7,47.5,30.14,NW,315,8.0,8.0,52,0.00,,,0.00,meteohub,2013-03-15 13:57:00,
2013-03-15 10:02:00,66.0,48.4,30.14,NW,315,4.0,8.0,53,0.00,,,0.00,meteohub,2013-03-15 14:02:00,
2013-03-15 10:07:00,66.6,48.9,30.14,North,0,4.0,8.0,53,0.00,,,0.00,meteohub,2013-03-15 14:07:00,
2013-03-15 10:12:00,67.1,48.4,30.15,North,0,6.0,8.0,51,0.00,,,0.00,meteohub,2013-03-15 14:12:00,
2013-03-15 10:17:00,67.1,48.9,30.15,North,0,5.0,8.0,52,0.00,,,0.00,meteohub,2013-03-15 14:17:00,
2013-03-15 10:22:00,67.6,48.9,30.15,West,270,5.0,8.0,51,0.00,,,0.00,meteohub,2013-03-15 14:22:00,
2013-03-15 10:27:00,67.3,48.6,30.14,NW,315,3.0,8.0,51,0.00,,,0.00,meteohub,2013-03-15 14:27:00,
2013-03-15 10:32:00,68.7,49.8,30.14,NE,45,2.0,8.0,51,0.00,,,0.00,meteohub,2013-03-15 14:32:00,
2013-03-15 10:37:00,69.8,49.8,30.15,NW,315,2.0,8.0,49,0.00,,,0.00,meteohub,2013-03-15 14:37:00,
2013-03-15 10:42:00,70.2,48.4,30.15,North,0,4.0,8.0,46,0.00,,,0.00,meteohub,2013-03-15 14:42:00,
2013-03-15 10:47:00,70.2,48.9,30.15,SW,225,3.0,8.0,47,0.00,,,0.00,meteohub,2013-03-15 14:47:00,
2013-03-15 10:53:00,70.0,50.0,30.14,North,0,2.0,6.0,49,0.00,,,0.00,meteohub,2013-03-15 14:53:00,
2013-03-15 10:58:00,71.2,49.5,30.15,North,0,4.0,6.0,46,0.00,,,0.00,meteohub,2013-03-15 14:58:00,
2013-03-15 11:03:00,72.0,50.0,30.14,North,0,2.0,6.0,46,0.00,,,0.00,meteohub,2013-03-15 15:03:00,
2013-03-15 11:08:00,73.2,50.0,30.14,North,0,5.0,6.0,44,0.00,,,0.00,meteohub,2013-03-15 15:08:00,
2013-03-15 11:14:00,72.5,50.0,30.14,North,0,1.0,5.0,45,0.00,,,0.00,meteohub,2013-03-15 15:14:00,
2013-03-15 11:19:00,72.9,49.1,30.14,North,0,4.0,6.0,43,0.00,,,0.00,meteohub,2013-03-15 15:19:00,
2013-03-15 11:24:00,72.5,49.3,30.13,North,0,4.0,6.0,44,0.00,,,0.00,meteohub,2013-03-15 15:24:00,
2013-03-15 11:29:00,72.3,49.8,30.14,North,0,5.0,6.0,45,0.00,,,0.00,meteohub,2013-03-15 15:29:00,
2013-03-15 11:34:00,72.1,49.6,30.14,WNW,293,4.0,5.0,45,0.00,,,0.00,meteohub,2013-03-15 15:34:00,
2013-03-15 11:40:00,72.3,50.4,30.14,NW,315,6.0,6.0,46,0.00,,,0.00,meteohub,2013-03-15 15:40:00,
2013-03-15 11:45:00,72.3,50.9,30.14,North,0,3.0,6.0,47,0.00,,,0.00,meteohub,2013-03-15 15:45:00,
2013-03-15 11:50:00,72.5,49.3,30.14,West,270,3.0,9.0,44,0.00,,,0.00,meteohub,2013-03-15 15:50:00,
2013-03-15 11:55:00,72.9,49.6,30.13,ESE,113,3.0,9.0,44,0.00,,,0.00,meteohub,2013-03-15 15:55:00,
2013-03-15 12:00:00,73.6,49.1,30.13,WNW,293,4.0,9.0,42,0.00,,,0.00,meteohub,2013-03-15 16:00:00,
2013-03-15 12:05:00,73.9,50.0,30.13,East,90,5.0,8.0,43,0.00,,,0.00,meteohub,2013-03-15 16:05:00,
2013-03-15 12:10:00,73.8,49.3,30.13,North,0,2.0,6.0,42,0.00,,,0.00,meteohub,2013-03-15 16:10:00,
2013-03-15 12:15:00,74.1,50.2,30.13,North,0,2.0,8.0,43,0.00,,,0.00,meteohub,2013-03-15 16:15:00,
2013-03-15 12:21:00,75.0,49.1,30.13,WNW,293,6.0,8.0,40,0.00,,,0.00,meteohub,2013-03-15 16:21:00,
2013-03-15 12:26:00,74.5,49.3,30.13,East,90,6.0,7.0,41,0.00,,,0.00,meteohub,2013-03-15 16:26:00,
2013-03-15 12:31:00,73.9,50.0,30.13,West,270,4.0,7.0,43,0.00,,,0.00,meteohub,2013-03-15 16:31:00,
2013-03-15 12:37:00,74.1,49.6,30.12,North,0,2.0,7.0,42,0.00,,,0.00,meteohub,2013-03-15 16:37:00,
2013-03-15 12:42:00,75.0,49.6,30.12,NE,45,3.0,7.0,41,0.00,,,0.00,meteohub,2013-03-15 16:42:00,
2013-03-15 12:47:00,75.2,49.3,30.12,SE,135,2.0,7.0,40,0.00,,,0.00,meteohub,2013-03-15 16:47:00,
2013-03-15 12:52:00,74.8,50.2,30.11,NE,45,8.0,9.0,42,0.00,,,0.00,meteohub,2013-03-15 16:52:00,
2013-03-15 12:57:00,74.3,49.1,30.12,WNW,293,6.0,11.0,41,0.00,,,0.00,meteohub,2013-03-15 16:57:00,
2013-03-15 13:02:00,74.8,50.2,30.11,East,90,6.0,11.0,42,0.00,,,0.00,meteohub,2013-03-15 17:02:00,
2013-03-15 13:07:00,74.1,49.6,30.11,East,90,6.0,11.0,42,0.00,,,0.00,meteohub,2013-03-15 17:07:00,
2013-03-15 13:12:00,74.7,50.0,30.11,North,0,3.0,11.0,42,0.00,,,0.00,meteohub,2013-03-15 17:12:00,
2013-03-15 13:17:00,73.9,51.3,30.10,North,0,4.0,11.0,45,0.00,,,0.00,meteohub,2013-03-15 17:17:00,
2013-03-15 13:22:00,74.8,50.9,30.10,North,0,3.0,10.0,43,0.00,,,0.00,meteohub,2013-03-15 17:22:00,
2013-03-15 13:27:00,75.7,50.4,30.10,NW,315,2.0,10.0,41,0.00,,,0.00,meteohub,2013-03-15 17:27:00,
2013-03-15 13:32:00,76.3,50.9,30.10,SSW,203,8.0,9.0,41,0.00,,,0.00,meteohub,2013-03-15 17:32:00,
2013-03-15 13:37:00,75.2,49.8,30.09,East,90,13.0,13.0,41,0.00,,,0.00,meteohub,2013-03-15 17:37:00,
2013-03-15 13:43:00,74.5,50.5,30.09,East,90,6.0,14.0,43,0.00,,,0.00,meteohub,2013-03-15 17:43:00,
2013-03-15 13:48:00,75.2,50.5,30.09,NW,315,5.0,14.0,42,0.00,,,0.00,meteohub,2013-03-15 17:48:00,
2013-03-15 13:53:00,76.1,51.3,30.09,North,0,3.0,14.0,42,0.00,,,0.00,meteohub,2013-03-15 17:53:00,
2013-03-15 13:58:00,77.0,50.9,30.09,NW,315,3.0,8.0,40,0.00,,,0.00,meteohub,2013-03-15 17:58:00,
2013-03-15 14:04:00,77.5,51.3,30.09,East,90,8.0,8.0,40,0.00,,,0.00,meteohub,2013-03-15 18:04:00,
2013-03-15 14:09:00,77.2,51.1,30.08,SE,135,9.0,9.0,40,0.00,,,0.00,meteohub,2013-03-15 18:09:00,
2013-03-15 14:14:00,74.7,52.5,30.08,NE,45,11.0,11.0,46,0.00,,,0.00,meteohub,2013-03-15 18:14:00,
2013-03-15 14:19:00,75.2,52.3,30.07,East,90,8.0,13.0,45,0.00,,,0.00,meteohub,2013-03-15 18:19:00,
2013-03-15 14:24:00,74.5,51.8,30.07,East,90,9.0,13.0,45,0.00,,,0.00,meteohub,2013-03-15 18:24:00,
2013-03-15 14:29:00,75.6,52.2,30.07,NW,315,9.0,13.0,44,0.00,,,0.00,meteohub,2013-03-15 18:29:00,
2013-03-15 14:34:00,75.2,53.1,30.07,NE,45,5.0,12.0,46,0.00,,,0.00,meteohub,2013-03-15 18:34:00,
2013-03-15 14:39:00,76.8,51.3,30.06,North,0,6.0,12.0,41,0.00,,,0.00,meteohub,2013-03-15 18:39:00,
2013-03-15 14:44:00,77.5,52.0,30.06,East,90,4.0,11.0,41,0.00,,,0.00,meteohub,2013-03-15 18:44:00,
2013-03-15 14:50:00,77.2,52.3,30.06,NE,45,4.0,11.0,42,0.00,,,0.00,meteohub,2013-03-15 18:50:00,
2013-03-15 14:55:00,77.0,51.4,30.06,North,0,2.0,12.0,41,0.00,,,0.00,meteohub,2013-03-15 18:55:00,
2013-03-15 15:00:00,77.7,52.9,30.06,NW,315,2.0,12.0,42,0.00,,,0.00,meteohub,2013-03-15 19:00:00,
2013-03-15 15:05:00,76.6,51.3,30.06,East,90,7.0,12.0,41,0.00,,,0.00,meteohub,2013-03-15 19:05:00,
2013-03-15 15:10:00,76.6,49.8,30.06,North,0,2.0,9.0,39,0.00,,,0.00,meteohub,2013-03-15 19:10:00,
2013-03-15 15:15:00,76.8,49.3,30.06,NW,315,4.0,9.0,38,0.00,,,0.00,meteohub,2013-03-15 19:15:00,
2013-03-15 15:20:00,77.2,49.6,30.06,North,0,8.0,9.0,38,0.00,,,0.00,meteohub,2013-03-15 19:20:00,
2013-03-15 15:25:00,76.8,50.0,30.05,East,90,8.0,9.0,39,0.00,,,0.00,meteohub,2013-03-15 19:25:00,
2013-03-15 15:30:00,74.3,50.9,30.05,East,90,11.0,11.0,44,0.00,,,0.00,meteohub,2013-03-15 19:30:00,
2013-03-15 15:35:00,75.0,50.4,30.05,NW,315,2.0,11.0,42,0.00,,,0.00,meteohub,2013-03-15 19:35:00,
2013-03-15 15:40:00,77.0,50.2,30.05,NE,45,7.0,11.0,39,0.00,,,0.00,meteohub,2013-03-15 19:40:00,
2013-03-15 15:46:00,76.6,51.3,30.04,East,90,6.0,11.0,41,0.00,,,0.00,meteohub,2013-03-15 19:46:00,
2013-03-15 15:51:00,76.1,50.0,30.04,SW,225,3.0,10.0,40,0.00,,,0.00,meteohub,2013-03-15 19:51:00,
2013-03-15 15:57:00,77.0,49.5,30.04,NE,45,3.0,10.0,38,0.00,,,0.00,meteohub,2013-03-15 19:57:00,
2013-03-15 16:02:00,78.3,49.1,30.04,NE,45,2.0,10.0,36,0.00,,,0.00,meteohub,2013-03-15 20:02:00,
2013-03-15 16:07:00,77.2,49.6,30.04,ESE,113,11.0,11.0,38,0.00,,,0.00,meteohub,2013-03-15 20:07:00,
2013-03-15 16:12:00,77.2,48.9,30.04,East,90,4.0,11.0,37,0.00,,,0.00,meteohub,2013-03-15 20:12:00,
2013-03-15 16:17:00,77.0,48.0,30.04,North,0,4.0,11.0,36,0.00,,,0.00,meteohub,2013-03-15 20:17:00,
2013-03-15 16:22:00,77.7,48.6,30.04,North,0,2.0,11.0,36,0.00,,,0.00,meteohub,2013-03-15 20:22:00,
2013-03-15 16:27:00,78.8,48.0,30.04,SW,225,4.0,11.0,34,0.00,,,0.00,meteohub,2013-03-15 20:27:00,
2013-03-15 16:32:00,79.7,48.0,30.04,NE,45,5.0,11.0,33,0.00,,,0.00,meteohub,2013-03-15 20:32:00,
2013-03-15 16:37:00,79.2,47.7,30.04,East,90,9.0,9.0,33,0.00,,,0.00,meteohub,2013-03-15 20:37:00,
2013-03-15 16:42:00,76.5,49.6,30.04,SE,135,2.0,11.0,39,0.00,,,0.00,meteohub,2013-03-15 20:42:00,
2013-03-15 16:47:00,75.6,50.2,30.04,East,90,6.0,11.0,41,0.00,,,0.00,meteohub,2013-03-15 20:47:00,
2013-03-15 16:53:00,74.3,50.4,30.04,East,90,11.0,11.0,43,0.00,,,0.00,meteohub,2013-03-15 20:53:00,
2013-03-15 16:58:00,74.8,50.2,30.04,East,90,7.0,14.0,42,0.00,,,0.00,meteohub,2013-03-15 20:58:00,
2013-03-15 17:03:00,75.9,49.8,30.04,East,90,7.0,14.0,40,0.00,,,0.00,meteohub,2013-03-15 21:03:00,
2013-03-15 17:08:00,75.9,49.1,30.04,North,0,7.0,11.0,39,0.00,,,0.00,meteohub,2013-03-15 21:08:00,
2013-03-15 17:13:00,75.7,49.6,30.04,North,0,4.0,11.0,40,0.00,,,0.00,meteohub,2013-03-15 21:13:00,
2013-03-15 17:18:00,77.0,49.5,30.04,NE,45,2.0,12.0,38,0.00,,,0.00,meteohub,2013-03-15 21:18:00,
2013-03-15 17:23:00,77.0,49.5,30.04,North,0,2.0,12.0,38,0.00,,,0.00,meteohub,2013-03-15 21:23:00,
2013-03-15 17:28:00,77.2,50.4,30.04,North,0,2.0,12.0,39,0.00,,,0.00,meteohub,2013-03-15 21:28:00,
2013-03-15 17:34:00,78.4,50.0,30.04,East,90,5.0,8.0,37,0.00,,,0.00,meteohub,2013-03-15 21:34:00,
2013-03-15 17:39:00,78.1,51.1,30.04,SE,135,6.0,8.0,39,0.00,,,0.00,meteohub,2013-03-15 21:39:00,
2013-03-15 17:44:00,78.3,50.5,30.04,North,0,3.0,8.0,38,0.00,,,0.00,meteohub,2013-03-15 21:44:00,
2013-03-15 17:49:00,78.1,51.1,30.04,NE,45,8.0,8.0,39,0.00,,,0.00,meteohub,2013-03-15 21:49:00,
2013-03-15 17:54:00,75.9,50.5,30.04,North,0,2.0,11.0,41,0.00,,,0.00,meteohub,2013-03-15 21:54:00,
2013-03-15 17:59:00,75.2,51.1,30.05,East,90,4.0,11.0,43,0.00,,,0.00,meteohub,2013-03-15 21:59:00,
2013-03-15 18:04:00,75.2,51.8,30.04,SE,135,4.0,11.0,44,0.00,,,0.00,meteohub,2013-03-15 22:04:00,
2013-03-15 18:10:00,74.7,51.3,30.05,NE,45,2.0,10.0,44,0.00,,,0.00,meteohub,2013-03-15 22:10:00,
2013-03-15 18:15:00,75.0,51.6,30.04,North,0,2.0,8.0,44,0.00,,,0.00,meteohub,2013-03-15 22:15:00,
2013-03-15 18:20:00,76.6,52.5,30.04,NW,315,1.0,8.0,43,0.00,,,0.00,meteohub,2013-03-15 22:20:00,
2013-03-15 18:25:00,77.0,51.4,30.04,NE,45,2.0,8.0,41,0.00,,,0.00,meteohub,2013-03-15 22:25:00,
2013-03-15 18:31:00,76.3,51.4,30.04,East,90,1.0,4.0,42,0.00,,,0.00,meteohub,2013-03-15 22:31:00,
2013-03-15 18:36:00,75.9,51.8,30.04,North,0,2.0,4.0,43,0.00,,,0.00,meteohub,2013-03-15 22:36:00,
2013-03-15 18:41:00,74.5,51.8,30.04,East,90,6.0,6.0,45,0.00,,,0.00,meteohub,2013-03-15 22:41:00,
2013-03-15 18:46:00,72.5,51.6,30.05,East,90,3.0,6.0,48,0.00,,,0.00,meteohub,2013-03-15 22:46:00,
2013-03-15 18:52:00,71.2,52.7,30.04,East,90,3.0,7.0,52,0.00,,,0.00,meteohub,2013-03-15 22:52:00,
2013-03-15 18:57:00,70.9,52.3,30.05,NE,45,2.0,7.0,52,0.00,,,0.00,meteohub,2013-03-15 22:57:00,
2013-03-15 19:02:00,70.0,51.6,30.05,East,90,2.0,7.0,52,0.00,,,0.00,meteohub,2013-03-15 23:02:00,
2013-03-15 19:07:00,69.1,52.2,30.05,East,90,3.0,7.0,55,0.00,,,0.00,meteohub,2013-03-15 23:07:00,
2013-03-15 19:12:00,68.5,52.2,30.05,NE,45,2.0,5.0,56,0.00,,,0.00,meteohub,2013-03-15 23:12:00,
2013-03-15 19:17:00,68.0,52.7,30.05,East,90,7.0,7.0,58,0.00,,,0.00,meteohub,2013-03-15 23:17:00,
2013-03-15 19:22:00,67.6,52.9,30.05,East,90,2.0,7.0,59,0.00,,,0.00,meteohub,2013-03-15 23:22:00,
2013-03-15 19:27:00,67.1,52.7,30.04,East,90,4.0,7.0,60,0.00,,,0.00,meteohub,2013-03-15 23:27:00,
2013-03-15 19:32:00,66.9,52.5,30.05,East,90,2.0,7.0,60,0.00,,,0.00,meteohub,2013-03-15 23:32:00,
2013-03-15 19:38:00,66.7,52.9,30.05,East,90,3.0,6.0,61,0.00,,,0.00,meteohub,2013-03-15 23:38:00,
2013-03-15 19:43:00,66.4,52.5,30.05,East,90,2.0,6.0,61,0.00,,,0.00,meteohub,2013-03-15 23:43:00,
2013-03-15 19:48:00,66.0,52.7,30.05,East,90,2.0,6.0,62,0.00,,,0.00,meteohub,2013-03-15 23:48:00,
2013-03-15 19:53:00,65.8,52.9,30.05,East,90,2.0,5.0,63,0.00,,,0.00,meteohub,2013-03-15 23:53:00,
2013-03-15 19:58:00,65.7,52.7,30.05,East,90,2.0,5.0,63,0.00,,,0.00,meteohub,2013-03-15 23:58:00,
2013-03-15 20:03:00,65.3,52.9,30.05,East,90,2.0,4.0,64,0.00,,,0.00,meteohub,2013-03-16 00:03:00,
2013-03-15 20:09:00,65.1,53.1,30.05,East,90,3.0,3.0,65,0.00,,,0.00,meteohub,2013-03-16 00:09:00,
2013-03-15 20:14:00,65.1,53.1,30.05,East,90,2.0,3.0,65,0.00,,,0.00,meteohub,2013-03-16 00:14:00,
2013-03-15 20:19:00,64.9,52.9,30.05,East,90,1.0,3.0,65,0.00,,,0.00,meteohub,2013-03-16 00:19:00,
2013-03-15 20:24:00,64.6,52.9,30.05,East,90,1.0,3.0,66,0.00,,,0.00,meteohub,2013-03-16 00:24:00,
2013-03-15 20:29:00,64.4,52.9,30.05,East,90,1.0,3.0,66,0.00,,,0.00,meteohub,2013-03-16 00:29:00,
2013-03-15 20:34:00,64.2,52.7,30.05,East,90,1.0,2.0,66,0.00,,,0.00,meteohub,2013-03-16 00:34:00,
2013-03-15 20:40:00,64.0,52.9,30.05,East,90,2.0,2.0,67,0.00,,,0.00,meteohub,2013-03-16 00:40:00,
2013-03-15 20:45:00,64.0,52.9,30.05,SE,135,2.0,2.0,67,0.00,,,0.00,meteohub,2013-03-16 00:45:00,
2013-03-15 20:50:00,63.9,52.7,30.05,East,90,1.0,2.0,67,0.00,,,0.00,meteohub,2013-03-16 00:50:00,
2013-03-15 20:55:00,63.5,52.7,30.06,East,90,1.0,2.0,68,0.00,,,0.00,meteohub,2013-03-16 00:55:00,
2013-03-15 21:00:00,63.1,52.3,30.06,East,90,0.0,1.0,68,0.00,,,0.00,meteohub,2013-03-16 01:00:00,
2013-03-15 21:06:00,62.6,52.0,30.06,East,90,0.0,1.0,68,0.00,,,0.00,meteohub,2013-03-16 01:06:00,
2013-03-15 21:11:00,61.9,51.6,30.06,East,90,0.0,1.0,69,0.00,,,0.00,meteohub,2013-03-16 01:11:00,
2013-03-15 21:16:00,61.3,51.8,30.06,East,90,0.0,1.0,71,0.00,,,0.00,meteohub,2013-03-16 01:16:00,
2013-03-15 21:22:00,61.2,52.0,30.07,East,90,0.0,1.0,72,0.00,,,0.00,meteohub,2013-03-16 01:22:00,
2013-03-15 21:27:00,60.8,52.2,30.06,East,90,0.0,1.0,73,0.00,,,0.00,meteohub,2013-03-16 01:27:00,
2013-03-15 21:32:00,60.4,52.2,30.07,East,90,0.0,0.0,74,0.00,,,0.00,meteohub,2013-03-16 01:32:00,
2013-03-15 21:37:00,60.3,52.3,30.06,East,90,0.0,0.0,75,0.00,,,0.00,meteohub,2013-03-16 01:37:00,
2013-03-15 21:42:00,60.1,52.5,30.07,East,90,0.0,0.0,76,0.00,,,0.00,meteohub,2013-03-16 01:42:00,
2013-03-15 21:47:00,59.9,53.1,30.07,East,90,1.0,0.0,78,0.00,,,0.00,meteohub,2013-03-16 01:47:00,
2013-03-15 21:52:00,59.9,53.1,30.07,East,90,0.0,1.0,78,0.00,,,0.00,meteohub,2013-03-16 01:52:00,
2013-03-15 21:57:00,59.5,52.7,30.07,East,90,0.0,1.0,78,0.00,,,0.00,meteohub,2013-03-16 01:57:00,
2013-03-15 22:02:00,59.2,52.7,30.06,East,90,0.0,1.0,79,0.00,,,0.00,meteohub,2013-03-16 02:02:00,
2013-03-15 22:07:00,59.0,52.9,30.06,East,90,0.0,0.0,80,0.00,,,0.00,meteohub,2013-03-16 02:07:00,
2013-03-15 22:12:00,59.0,52.9,30.06,East,90,0.0,0.0,80,0.00,,,0.00,meteohub,2013-03-16 02:12:00,
2013-03-15 22:17:00,58.6,52.9,30.07,East,90,0.0,0.0,81,0.00,,,0.00,meteohub,2013-03-16 02:17:00,
2013-03-15 22:22:00,58.5,53.6,30.07,East,90,0.0,0.0,84,0.00,,,0.00,meteohub,2013-03-16 02:22:00,
2013-03-15 22:27:00,58.5,54.0,30.07,East,90,0.0,0.0,85,0.00,,,0.00,meteohub,2013-03-16 02:27:00,
2013-03-15 22:32:00,58.5,54.0,30.07,East,90,0.0,0.0,85,0.00,,,0.00,meteohub,2013-03-16 02:32:00,
2013-03-15 22:37:00,58.5,54.0,30.07,East,90,0.0,0.0,85,0.00,,,0.00,meteohub,2013-03-16 02:37:00,
2013-03-15 22:42:00,58.5,54.0,30.07,East,90,0.0,1.0,85,0.00,,,0.00,meteohub,2013-03-16 02:42:00,
2013-03-15 22:47:00,58.3,53.8,30.07,East,90,0.0,1.0,85,0.00,,,0.00,meteohub,2013-03-16 02:47:00,
2013-03-15 22:52:00,57.9,53.4,30.07,East,90,0.0,1.0,85,0.00,,,0.00,meteohub,2013-03-16 02:52:00,
2013-03-15 22:57:00,57.7,53.6,30.08,East,90,0.0,0.0,86,0.00,,,0.00,meteohub,2013-03-16 02:57:00,
2013-03-15 23:03:00,57.6,54.0,30.07,East,90,1.0,0.0,88,0.00,,,0.00,meteohub,2013-03-16 03:03:00,
2013-03-15 23:08:00,57.7,54.5,30.07,East,90,0.0,1.0,89,0.00,,,0.00,meteohub,2013-03-16 03:08:00,
2013-03-15 23:13:00,57.9,54.7,30.07,East,90,1.0,1.0,89,0.00,,,0.00,meteohub,2013-03-16 03:13:00,
2013-03-15 23:18:00,58.3,54.7,30.07,East,90,1.0,1.0,88,0.00,,,0.00,meteohub,2013-03-16 03:18:00,
2013-03-15 23:23:00,58.8,55.2,30.07,East,90,1.0,1.0,88,0.00,,,0.00,meteohub,2013-03-16 03:23:00,
2013-03-15 23:28:00,59.0,55.2,30.07,East,90,1.0,1.0,87,0.00,,,0.00,meteohub,2013-03-16 03:28:00,
2013-03-15 23:34:00,59.2,55.4,30.07,East,90,1.0,1.0,87,0.00,,,0.00,meteohub,2013-03-16 03:34:00,
2013-03-15 23:39:00,59.2,55.0,30.07,East,90,0.0,1.0,86,0.00,,,0.00,meteohub,2013-03-16 03:39:00,
2013-03-15 23:44:00,58.8,54.3,30.08,East,90,0.0,1.0,85,0.00,,,0.00,meteohub,2013-03-16 03:44:00,
2013-03-15 23:49:00,58.5,54.7,30.08,NW,315,0.0,1.0,87,0.00,,,0.00,meteohub,2013-03-16 03:49:00,
2013-03-15 23:54:00,58.3,54.1,30.07,NW,315,1.0,2.0,86,0.00,,,0.00,meteohub,2013-03-16 03:54:00,